Dewpoint
54 34 35 38 31 25 22 26 32 36 35 40 42 40 36 37 36 45 59 60 61 62 66 66 69 69 69 69 70 71 70 69 68 66 65 65 65 64 64 66 66 65 63 64 65 65 66 66 65
35 30 36 32 26 15 15 24 29 32 35 42 40 36 34 41 51 56 58 60 60 63 63 64 69 69 69 70 70 71 70 69 68 65 65 65 65 64 63 65 67 64 63 63 64 63 63 65 65
36 29 32 29 25 13 15 21 28 34 38 39 36 38 36 43 53 55 59 60 60 61 62 66 69 68 68 69 69 70 70 70 67 65 65 64 65 65 63 67 66 65 63 63 62 62 63 64 64
31 32 30 25 20 20 17 22 29 34 33 34 33 33 45 52 53 56 58 58 59 64 62 68 69 68 67 68 68 69 70 69 68 65 64 64 65 64 65 65 66 66 63 62 63 63 63 64 63
31 32 28 26 22 19 20 24 29 30 27 30 31 32 43 53 56 57 58 57 60 64 63 64 69 69 68 68 68 69 69 69 68 65 64 64 64 64 65 64 66 65 64 63 64 65 64 64 64
30 31 26 24 20 20 22 27 29 25 25 30 29 30 45 55 56 57 57 56 60 62 63 64 66 68 68 68 69 69 69 69 67 65 64 63 64 64 64 63 65 65 65 65 64 64 64 64 64
31 31 27 24 21 21 23 27 25 23 23 26 32 29 45 53 56 57 57 56 59 62 63 62 63 64 66 67 67 68 69 69 67 66 66 65 65 65 65 64 64 66 65 64 64 63 64 64 63
30 30 27 25 20 18 25 26 25 22 22 34 37 25 38 52 57 57 56 57 59 63 64 62 62 62 63 64 64 66 67 67 66 64 64 63 63 63 63 62 63 65 65 64 63 64 64 63 63
32 27 26 24 20 18 26 24 25 25 25 31 36 33 45 55 57 56 56 58 59 61 63 63 62 60 61 62 62 64 64 65 63 62 61 61 59 59 60 61 62 63 64 64 64 63 63 63 62
28 27 25 24 19 19 26 23 23 21 23 25 34 43 53 56 56 56 56 57 58 60 63 64 63 62 61 59 62 62 63 63 62 62 61 60 59 58 58 59 60 60 60 64 63 62 60 60 57
28 26 25 23 20 20 24 23 22 20 21 21 25 36 53 55 55 55 55 56 58 59 62 63 64 62 62 60 62 62 62 62 62 62 62 61 58 58 58 60 58 58 57 57 58 59 58 56 55
23 21 22 23 25 23 24 22 22 21 23 25 26 34 49 52 52 53 54 55 57 59 60 63 64 64 63 62 62 61 61 62 61 62 62 61 59 59 58 58 58 59 57 57 57 57 57 56 56
25 20 22 24 24 23 24 22 20 22 24 24 25 33 44 48 50 51 52 54 56 57 59 62 64 63 64 63 63 62 62 61 61 61 62 60 58 59 58 57 58 57 56 56 56 56 56 56 56
22 22 22 22 23 23 22 21 21 19 21 22 24 30 37 44 48 50 51 53 55 57 58 60 62 63 63 63 64 63 63 62 61 61 61 60 59 58 58 57 57 57 56 56 55 54 55 55 56
23 21 21 20 21 21 21 18 18 16 16 16 20 24 31 40 46 49 52 53 54 56 58 59 61 62 63 64 64 63 63 63 62 61 61 60 59 58 57 57 57 57 56 55 54 54 55 54 54
17 19 17 19 21 24 21 16 17 18 16 14 14 18 27 33 43 48 50 53 54 56 58 60 61 62 63 64 64 64 64 64 64 63 61 61 60 58 58 58 58 58 58 56 54 53 53 53 52
17 12 15 14 21 21 18 15 17 18 20 14 13 14 18 22 28 41 49 52 54 55 56 59 61 62 63 64 64 64 64 64 64 63 63 62 60 59 58 57 57 57 57 56 54 53 53 52 51
15 12 13 13 17 21 19 17 15 19 19 19 17 19 22 21 21 23 27 39 50 54 56 57 60 62 63 63 64 64 64 64 64 64 63 62 62 60 59 58 57 57 56 55 54 53 53 52 52
12 11 10 11 21 19 18 16 12 13 19 18 19 19 20 21 22 23 25 28 30 39 52 56 58 60 61 62 63 63 63 64 64 64 64 63 63 62 61 59 58 58 56 56 55 55 54 52 52
12 10 8 19 23 22 19 17 14 15 20 20 20 19 19 21 25 29 30 30 30 30 38 50 55 57 60 62 63 63 63 64 63 64 64 63 63 63 61 60 59 58 56 56 56 55 53 52 51
11 9 10 9 21 20 17 12 13 15 17 21 21 21 24 26 27 31 35 37 38 35 34 37 46 54 58 61 62 63 63 63 63 63 63 63 63 63 62 61 60 59 57 56 56 55 52 52 52
11 12 15 20 15 4 17 -3 11 11 16 22 27 26 28 31 32 34 36 38 42 44 42 34 41 47 53 57 59 61 60 59 59 61 63 63 63 63 62 62 61 60 59 57 56 55 54 53 52
14 18 17 19 13 15 12 5 -1 11 15 23 29 31 32 34 34 35 37 39 41 45 49 44 37 44 50 54 56 58 59 59 58 60 61 62 63 62 62 61 61 60 59 57 57 56 54 54 53
21 18 19 18 14 7 4 6 -0 8 10 23 29 31 33 33 34 35 37 39 41 44 45 49 51 49 47 51 55 55 55 56 57 58 60 61 60 61 61 61 61 61 60 59 58 57 56 55 54
18 13 12 10 13 8 14 16 4 12 16 24 28 31 32 34 34 35 36 38 40 41 42 43 45 50 55 55 55 56 57 58 58 57 57 57 57 58 58 58 59 59 59 59 58 57 56 55 54
20 11 16 19 15 11 19 14 9 16 21 27 29 31 33 34 36 37 38 38 39 40 40 41 42 41 42 44 45 48 52 52 50 48 48 48 47 48 48 48 51 52 54 54 56 57 56 56 55
18 14 16 18 23 19 12 12 19 25 25 28 29 31 33 35 37 37 37 37 38 38 38 39 39 40 40 40 41 41 41 42 42 42 43 42 42 41 43 44 45 46 47 48 49 52 52 53 54
19 14 11 14 23 18 10 11 6 23 24 28 29 30 33 36 36 37 36 37 36 36 36 37 36 37 37 38 37 37 37 37 38 38 38 38 38 38 38 40 41 42 43 44 46 48 49 50 50
17 15 15 9 18 27 16 5 9 21 24 27 29 30 33 36 36 36 36 36 36 36 36 36 36 36 36 36 36 36 36 35 35 35 35 36 36 36 36 37 38 38 39 40 42 43 44 44 46
20 14 14 13 19 13 22 13 23 20 24 28 29 31 34 36 35 35 35 35 35 35 34 34 34 34 34 35 35 33 33 33 33 33 33 35 34 36 35 36 36 36 36 37 38 39 40 40 42
Lifted_Index
6 7 6 6 5 5 5 5 4 3 3 3 3 3 3 3 1 -0 -1 -1 -1 -2 -2 -3 -3 -4 -4 -3 -3 -3 -3 -2 -1 -0 1 1 1 1 1 1 1 1 2 2 1 1 1 1 1
6 6 6 5 5 5 5 5 4 4 3 3 3 3 3 2 1 -1 -1 -1 -1 -1 -2 -2 -3 -3 -3 -3 -3 -3 -3 -2 -1 0 1 1 1 1 1 1 0 1 2 2 2 2 1 1 1
6 6 6 5 5 5 5 5 5 4 4 4 4 4 3 2 -0 -1 -1 -1 -1 -1 -1 -2 -3 -3 -3 -2 -3 -3 -3 -2 -1 0 1 1 1 1 1 1 0 1 2 2 2 2 2 2 2
6 6 6 5 5 5 6 5 5 5 5 5 5 4 3 1 -0 -1 -1 -0 -1 -1 -1 -2 -2 -2 -2 -2 -2 -3 -3 -2 -1 0 1 1 1 1 1 1 1 1 2 2 2 2 2 2 2
6 6 6 5 5 6 6 6 5 5 5 5 5 4 2 1 -0 -1 -0 -0 -1 -2 -1 -1 -2 -2 -2 -2 -2 -2 -3 -2 -1 0 1 1 1 1 2 1 1 1 1 2 1 1 2 2 2
6 6 5 5 5 6 6 6 5 6 6 6 5 4 2 1 -0 -0 -0 -0 -1 -2 -1 -1 -1 -1 -1 -1 -1 -2 -2 -2 -1 0 1 2 2 2 2 2 1 1 1 1 1 2 2 2 2
6 5 5 5 5 6 6 6 6 6 6 6 5 4 3 1 -0 -0 -0 -0 -1 -2 -2 -1 -1 -1 -1 -1 -1 -1 -1 -1 -0 1 2 2 2 2 2 3 2 1 1 1 2 2 2 2 2
6 6 5 5 5 6 6 6 6 7 6 6 5 5 3 1 0 0 -0 -0 -1 -2 -2 -1 -0 -0 0 0 0 -0 -0 -0 1 2 2 3 3 3 3 3 3 2 1 2 2 2 2 3 3
7 6 5 5 6 6 6 6 7 7 7 6 6 5 3 1 0 0 0 -0 -1 -1 -2 -1 -1 -0 0 1 1 1 1 1 2 2 3 3 3 3 4 4 4 3 3 3 2 3 3 3 4
7 6 6 6 6 6 6 7 7 7 7 7 6 4 2 0 0 0 -0 -0 -1 -1 -2 -2 -1 -0 0 1 1 1 1 1 2 2 3 3 3 4 4 4 4 4 4 4 3 4 4 4 4
6 6 6 6 6 7 7 7 7 7 7 7 7 5 2 1 0 0 -0 -0 -1 -1 -1 -1 -1 -1 -0 0 1 1 1 1 1 1 2 3 3 4 4 4 4 5 5 5 4 5 4 4 4
6 6 6 6 7 7 7 7 7 7 8 8 7 6 3 1 1 1 0 -0 -1 -1 -1 -1 -1 -1 -0 -0 0 1 1 1 1 1 2 2 3 4 4 4 4 4 5 5 5 5 5 5 5
6 6 6 6 7 7 7 7 7 7 8 8 8 7 4 2 2 1 1 0 -0 -0 -0 -1 -1 -1 -1 -0 -0 0 1 1 1 1 2 2 3 3 3 3 4 4 5 5 5 5 5 5 5
6 6 6 6 6 6 7 7 7 7 8 8 8 7 6 4 2 2 1 1 0 0 -0 -0 -0 -0 -1 -0 -0 0 0 1 1 1 2 2 2 3 3 3 3 3 4 5 5 5 5 5 5
6 6 6 6 6 6 6 6 7 7 8 8 8 8 7 5 3 2 1 1 1 0 -0 -0 -0 -0 -1 -1 -0 -0 0 0 1 1 1 2 2 2 2 2 3 3 4 4 5 5 5 5 5
6 6 6 6 7 7 6 6 6 7 7 7 7 7 7 7 5 3 2 1 1 0 -0 -1 -1 -1 -1 -1 -1 -0 -0 -0 0 0 1 1 2 2 2 2 3 3 3 3 4 4 4 5 5
5 5 5 6 6 7 6 5 6 7 7 7 7 7 8 8 8 6 4 3 2 1 -0 -1 -1 -1 -1 -1 -1 -1 -1 -1 -0 -0 0 1 1 1 2 2 3 3 3 3 3 4 4 4 4
5 5 5 5 6 6 6 5 6 7 7 7 7 7 8 8 9 9 8 6 4 3 1 -0 -1 -1 -1 -1 -1 -1 -1 -1 -1 -1 -1 -0 0 1 2 2 2 3 3 3 3 3 3 3 3
6 5 5 5 6 6 5 5 6 7 7 7 7 8 8 8 9 9 9 9 8 6 4 2 0 -1 -1 -1 -1 -1 -1 -1 -1 -1 -1 -1 -0 0 1 1 2 2 2 2 2 2 2 2 2
6 5 5 5 6 6 5 5 6 7 7 7 8 8 8 8 9 9 9 9 9 9 7 5 2 0 -1 -1 -1 -1 -1 -1 -1 -1 -1 -1 -0 -0 0 0 1 1 1 1 1 1 1 1 1
5 5 5 5 5 5 5 4 5 6 7 7 7 8 8 8 8 9 9 9 9 9 9 8 6 3 1 -0 -0 -1 -1 -0 -0 -0 -0 -0 0 0 0 0 0 1 1 1 1 1 1 1 1
5 6 6 5 5 5 4 4 4 5 6 6 7 7 8 8 8 9 9 9 9 9 9 9 8 6 3 1 1 0 0 1 0 0 0 0 0 1 0 0 1 1 1 1 1 1 1 1 1
6 6 6 6 5 4 4 4 4 5 5 5 6 7 8 8 9 9 9 9 9 9 9 9 9 8 6 4 2 2 2 2 1 1 1 1 1 1 1 1 1 1 1 1 1 1 1 1 2
6 6 5 5 4 4 4 4 4 5 5 6 6 7 8 9 9 9 9 9 9 9 9 9 8 8 7 5 4 3 3 3 3 2 2 2 2 2 2 2 2 2 2 2 2 2 2 2 2
6 5 4 3 2 3 4 4 4 5 6 6 7 8 9 9 9 9 9 9 9 9 9 9 8 8 7 7 6 5 5 4 4 4 4 4 4 4 4 4 4 4 4 3 3 3 3 3 3
5 5 3 2 1 2 3 3 4 6 7 7 8 8 9 9 9 9 9 9 9 9 9 9 9 8 8 8 7 7 7 6 6 7 7 7 7 7 7 7 7 7 6 6 6 5 4 4 4
5 5 4 3 2 2 2 3 4 5 6 6 7 8 9 9 9 9 8 8 9 9 9 9 9 9 9 9 8 8 8 8 8 8 9 9 9 9 9 9 9 8 8 8 8 7 6 6 6
5 5 4 3 2 1 2 2 3 4 4 5 6 7 8 8 8 8 8 8 9 9 9 9 9 9 9 9 9 9 9 9 9 10 10 10 10 10 10 10 9 9 9 9 8 8 8 7 7
5 4 4 3 2 1 1 2 3 4 4 5 6 7 8 8 8 8 8 8 8 9 9 9 9 9 9 10 10 10 11 11 11 11 11 11 11 11 11 11 11 11 10 10 10 9 9 9 9
5 4 4 3 2 2 2 2 4 5 5 6 6 7 8 8 8 8 8 8 8 8 9 9 9 10 10 11 11 12 12 12 12 12 13 13 12 12 12 12 12 12 12 11 11 11 11 11 11